| time (UTC) | temp F | wind direction | speed MPH | gust MPH | rain 1hr in | rain 24hr in | rain mn in | humidity % | barometer mb |
| 20260505013950 | 77 | 327 | 3.0 | 8.0 | 0.00 | 0.00 | 0.00 | 70 | 1018.1 |
| 20260505012951 | 77 | 328 | 4.0 | 6.0 | 0.00 | 0.00 | 0.00 | 70 | 1018.2 |
| 20260505011953 | 77 | 227 | 1.0 | 6.0 | 0.00 | 0.00 | 0.00 | 71 | 1018.4 |
| 20260505010950 | 78 | 190 | 1.0 | 8.0 | 0.00 | 0.00 | 0.00 | 73 | 1018.6 |
| 20260505005951 | 77 | 266 | 2.0 | 6.0 | 0.00 | 0.00 | 0.00 | 74 | 1019.0 |
| 20260505003949 | 76 | 274 | 3.0 | 8.0 | 0.00 | 0.00 | 0.00 | 79 | 1019.2 |
| 20260505002952 | 74 | 290 | 2.0 | 5.0 | 0.00 | 0.00 | 0.00 | 80 | 1019.2 |
| 20260505001951 | 74 | 255 | 1.0 | 8.0 | 0.00 | 0.00 | 0.00 | 80 | 1019.5 |
| 20260505000949 | 74 | 188 | 1.0 | 8.0 | 0.00 | 0.00 | 0.00 | 83 | 1019.4 |
| 20260504235950 | 74 | 246 | 2.0 | 5.0 | 0.00 | 0.00 | 0.00 | 84 | 1019.6 |
| 20260504234948 | 73 | 260 | 3.0 | 6.0 | 0.00 | 0.00 | 0.00 | 86 | 1019.6 |
| 20260504233949 | 72 | 242 | 2.0 | 8.0 | 0.00 | 0.00 | 0.00 | 88 | 1019.7 |
| 20260504231000 | 69 | 232 | 3.0 | 8.0 | 0.00 | 0.00 | 0.00 | 92 | 1020.0 |
| 20260504225946 | 69 | 274 | 3.0 | 8.0 | 0.00 | 0.00 | 0.00 | 92 | 1019.9 |
| 20260504224948 | 68 | 231 | 2.0 | 5.0 | 0.00 | 0.00 | 0.00 | 92 | 1019.9 |
| 20260504223947 | 68 | 239 | 1.0 | 5.0 | 0.00 | 0.01 | 0.00 | 92 | 1019.9 |
| 20260504222948 | 68 | 225 | 2.0 | 8.0 | 0.00 | 0.01 | 0.00 | 92 | 1020.0 |
| 20260504220948 | 67 | 251 | 1.0 | 2.0 | 0.00 | 0.01 | 0.00 | 92 | 1020.0 |
| 20260504215947 | 67 | 251 | 0.0 | 1.0 | 0.00 | 0.01 | 0.00 | 92 | 1019.8 |
| 20260504214947 | 66 | 251 | 0.0 | 1.0 | 0.00 | 0.01 | 0.00 | 92 | 1019.7 |
| 20260504213945 | 66 | 251 | 1.0 | 2.0 | 0.00 | 0.01 | 0.00 | 92 | 1019.7 |
| 20260504212944 | 66 | 251 | 1.0 | 2.0 | 0.00 | 0.01 | 0.00 | 92 | 1019.6 |
| 20260504211945 | 65 | 251 | 0.0 | 2.0 | 0.00 | 0.01 | 0.00 | 92 | 1019.6 |
| 20260504204944 | 65 | 245 | 2.0 | 4.0 | 0.00 | 0.03 | 0.00 | 92 | 1019.5 |
| 20260504202945 | 64 | 245 | 2.0 | 4.0 | 0.00 | 0.03 | 0.00 | 92 | 1019.2 |
| 20260504201945 | 64 | 246 | 3.0 | 8.0 | 0.00 | 0.03 | 0.00 | 92 | 1019.2 |
| 20260504200943 | 64 | 238 | 2.0 | 5.0 | 0.00 | 0.03 | 0.00 | 92 | 1019.2 |
| 20260504195945 | 64 | 228 | 1.0 | 2.0 | 0.00 | 0.03 | 0.00 | 92 | 1019.1 |
| 20260504194943 | 64 | 228 | 2.0 | 4.0 | 0.00 | 0.03 | 0.00 | 92 | 1018.8 |
| 20260504193943 | 65 | 222 | 2.0 | 4.0 | 0.00 | 0.03 | 0.00 | 92 | 1018.6 |
| 20260504192943 | 65 | 218 | 1.0 | 2.0 | 0.00 | 0.03 | 0.00 | 92 | 1018.6 |
| 20260504191942 | 65 | 217 | 1.0 | 2.0 | 0.00 | 0.03 | 0.00 | 92 | 1018.5 |
| 20260504190942 | 65 | 217 | 1.0 | 4.0 | 0.00 | 0.03 | 0.00 | 92 | 1018.3 |
| 20260504185943 | 65 | 150 | 1.0 | 2.0 | 0.00 | 0.03 | 0.00 | 92 | 1018.3 |
| 20260504184942 | 65 | 149 | 0.0 | 0.0 | 0.00 | 0.03 | 0.00 | 92 | 1018.4 |
| 20260504183941 | 65 | 149 | 0.0 | 0.0 | 0.00 | 0.03 | 0.00 | 92 | 1018.3 |
| 20260504182941 | 65 | 149 | 0.0 | 0.0 | 0.00 | 0.03 | 0.00 | 92 | 1018.4 |
| 20260504181941 | 64 | 149 | 0.0 | 0.0 | 0.00 | 0.03 | 0.00 | 92 | 1018.4 |
| 20260504180942 | 64 | 149 | 0.0 | 0.0 | 0.00 | 0.03 | 0.00 | 92 | 1018.1 |
| 20260504175940 | 64 | 149 | 0.0 | 0.0 | 0.00 | 0.03 | 0.00 | 92 | 1018.0 |
| 20260504174942 | 64 | 149 | 0.0 | 0.0 | 0.00 | 0.03 | 0.00 | 92 | 1017.9 |
| 20260504172940 | 65 | 149 | 0.0 | 0.0 | 0.00 | 0.03 | 0.00 | 92 | 1018.2 |
| 20260504171941 | 65 | 149 | 0.0 | 0.0 | 0.00 | 0.03 | 0.00 | 91 | 1018.1 |
| 20260504170941 | 65 | 149 | 0.0 | 0.0 | 0.00 | 0.03 | 0.00 | 92 | 1018.1 |
| 20260504150937 | 66 | 102 | 2.0 | 4.0 | 0.00 | 0.03 | 0.00 | 91 | 1018.7 |
| 20260504140935 | 66 | 99 | 0.0 | 0.0 | 0.00 | 0.03 | 0.00 | 91 | 1019.0 |
| 20260504045923 | 79 | 94 | 3.0 | 9.0 | 0.00 | 0.03 | 0.03 | 65 | 1017.9 |
| 20260504043922 | 80 | 122 | 4.0 | 8.0 | 0.00 | 0.03 | 0.03 | 64 | 1017.7 |
| 20260504042925 | 80 | 48 | 3.0 | 8.0 | 0.00 | 0.03 | 0.03 | 65 | 1017.7 |
| 20260504041922 | 79 | 120 | 1.0 | 6.0 | 0.00 | 0.03 | 0.03 | 65 | 1017.7 |
| 20260504040922 | 79 | 68 | 2.0 | 10.0 | 0.00 | 0.03 | 0.03 | 65 | 1017.7 |
| 20260504035923 | 80 | 140 | 5.0 | 9.0 | 0.00 | 0.03 | 0.03 | 63 | 1017.8 |
| 20260504034921 | 81 | 158 | 5.0 | 10.0 | 0.00 | 0.03 | 0.03 | 62 | 1017.9 |
| 20260504033920 | 81 | 106 | 2.0 | 6.0 | 0.00 | 0.03 | 0.03 | 64 | 1017.8 |
| 20260504032922 | 80 | 39 | 3.0 | 8.0 | 0.00 | 0.03 | 0.03 | 65 | 1018.0 |
| 20260504031920 | 78 | 118 | 2.0 | 5.0 | 0.00 | 0.03 | 0.03 | 67 | 1018.1 |
| 20260504030921 | 78 | 112 | 0.0 | 5.0 | 0.00 | 0.03 | 0.03 | 69 | 1018.2 |
| 20260504025921 | 79 | 113 | 2.0 | 5.0 | 0.00 | 0.03 | 0.03 | 67 | 1018.4 |
| 20260504024921 | 78 | 48 | 2.0 | 5.0 | 0.00 | 0.03 | 0.03 | 67 | 1018.4 |
| 20260504022922 | 79 | 115 | 3.0 | 8.0 | 0.00 | 0.03 | 0.03 | 67 | 1018.8 |
| 20260504021920 | 79 | 122 | 6.0 | 12.0 | 0.00 | 0.03 | 0.03 | 66 | 1018.8 |
| 20260504020919 | 79 | 92 | 2.0 | 6.0 | 0.00 | 0.03 | 0.03 | 65 | 1019.0 |
| 20260504015919 | 78 | 23 | 3.0 | 8.0 | 0.00 | 0.03 | 0.03 | 69 | 1019.2 |
| 20260504014919 | 77 | 109 | 1.0 | 5.0 | 0.00 | 0.03 | 0.03 | 71 | 1019.4 |